Location: Fernhill
(41.0167°S, 175.6333°E)
Time: 11:22:46
(UTC+00:00)

Cosmos 1833 Rocket - Pass Details

Date: 17 February 2026
Orbit: 832 x 838 km, 71.0° (Epoch: 7 March)

Event Time Altitude Azimuth Distance (km) Brightness Sun altitude
Exits shadow 13:13:11 36° 175° (S) 1,324 4.0 -36.3°
Drops below altitude 10° 13:16:32 10° 162° (SSE) 2,477 5.9 -36.1°
Sets 13:19:01 0° 158° (SSE) 3,419 6.8 -36.0°
